User: anonymous   Login
Location: Oshawa
(43.9000°N, 78.8670°W)
Time: 18:34:07
(UTC-04:00)
Language:

Cosmos 1821 Rocket - Orbit

View from above orbital plane
View from above orbital plane
View from above satellite
View from above satellite

Ground track
Ground track

The orbit data is extracted from the following two-line orbital elements,

1 17526U 87017B   16120.76057821 +.00000077 +00000-0 +62444-4 0  9998
2 17526 082.9036 349.1619 0041163 034.6509 032.5775 13.76781330449203
Epoch (UTC): 29 April 2016 18:15:13
Eccentricity: 0.0041163
inclination: 82.9036°
perigee height: 945 km
apogee height: 1005 km
right ascension of ascending node: 349.1619°
argument of perigee: 34.6509°
revolutions per day: 13.76781330
mean anomaly at epoch: 32.5775°
orbit number at epoch: 44920

The dashed part of the orbit path shows where the satellite is in the earth's shadow,  

DLR